[[{"header":{"parameterUnit":"m.s-1","parameterCategory":1,"la1":30.2991,"la2":30.254,"lo1":-89.0895,"lo2":-89.0444,"dy":0.0017,"dx":0.0017,"nx":28,"ny":28,"refTime":"2023-08-30T21:00:00:Z","depth":0,"parameterNumber":2,"parameterNumberName":"U-component_of_WINDS"},"data":[0,0,0,0,0,0,0,0,0,0,0,0,0,0,0,0,0,0,0,0,0,0,0,0,0,0,0,0,0,0,0,0,0,0,0,0,0,0,0,0,0,0,0,0,0,0,0,0,0,0,0,0,0,0,0,0,0,0,1.4267,1.4268,0,1.4359,1.436,1.4361,1.4416,1.4416,1.4416,1.4417,1.4506,1.4508,1.4511,0,0,0,0,0,0,0,0,0,0,0,0,0,1.4136,1.4138,1.4267,1.4268,1.4269,1.4359,1.436,1.4361,1.4416,1.4416,1.4416,1.4417,1.4506,1.4508,1.4511,0,0,0,0,0,0,0,0,0,0,0,0,0,1.4206,1.4138,1.4267,1.4308,1.4312,1.4358,1.436,1.4361,1.4416,1.4416,1.4416,1.4417,1.4505,1.4508,1.4511,1.4523,0,0,1.4521,1.4522,0,0,0,0,0,0,0,0,1.4202,1.4211,1.43,1.4305,1.431,1.4376,1.4346,1.4415,1.4416,1.4376,1.4417,1.4417,1.4462,1.4469,1.4485,1.4527,1.4531,1.4521,1.4523,1.4525,1.4525,0,0,0,0,0,0,0,1.4197,1.4207,1.4303,1.4302,1.4307,1.432,1.433,1.436,1.4416,1.438,1.4384,1.4394,1.4465,1.4482,1.4488,1.4532,1.4521,1.4524,1.4526,1.4527,1.4588,1.4587,0,0,0,0,0,0,1.4186,1.4203,1.43,1.4306,1.4256,1.4322,1.4334,1.4355,1.4416,1.4425,1.4394,1.4396,1.4476,1.4484,1.4491,1.4509,1.4525,1.4528,1.4529,1.4588,1.4587,1.4587,0,0,0,0,0,0,1.4183,1.4195,1.4297,1.4256,1.427,1.4324,1.4347,1.4356,1.4373,1.4426,1.4436,1.4401,1.4477,1.4487,1.4515,1.4512,1.4529,1.4532,1.4588,1.4588,1.4587,1.4543,0,0,0,0,0,0,1.4179,1.4193,1.4199,1.4256,1.4272,1.432,1.4347,1.4358,1.4379,1.4383,1.4436,1.4445,1.4478,1.451,1.4518,1.4517,1.4534,1.4589,1.4588,1.4587,1.4545,1.4541,1.4538,0,0,0,0,0,1.4175,1.4182,1.4199,1.4211,1.4281,1.4319,1.4329,1.4368,1.4379,1.4384,1.4419,1.4443,1.4512,1.4512,1.4522,1.4522,1.4589,1.4588,1.4587,1.4547,1.4542,1.4538,0,0,0,0,0,0,1.4123,1.4191,1.421,1.4237,1.4272,1.4329,1.4337,1.4362,1.4394,1.4396,1.4442,1.4454,1.4477,1.4503,1.4502,1.4536,1.4553,1.4554,1.4519,1.4515,1.4511,1.4504,1.4537,0,0,0,0,0,1.4115,1.4142,1.4199,1.4217,1.4234,1.4282,1.4301,1.4328,1.4366,1.4381,1.4417,1.4452,1.4481,1.45,1.453,1.455,1.4561,1.4554,1.4551,1.4548,1.4548,1.4559,1.4557,1.4585,1.4585,1.4585,0,0,1.4098,1.4139,1.4153,1.4208,1.4239,1.4265,1.4295,1.4321,1.434,1.4385,1.4414,1.4441,1.4483,1.4507,1.4519,1.4529,1.4543,1.4547,1.4544,1.4546,1.4558,1.4556,1.4553,1.4584,1.4584,1.4584,0,0,1.4081,1.4115,1.4133,1.4163,1.421,1.4242,1.4246,1.4299,1.432,1.435,1.4384,1.4407,1.4456,1.4485,1.4506,1.4499,1.4522,1.4507,1.4488,1.4499,1.4497,1.4495,1.4492,1.449,1.4507,1.4507,1.4507,0,1.4054,1.4095,1.4139,1.4164,1.4186,1.4229,1.4247,1.4274,1.4327,1.4341,1.4352,1.4415,1.4447,1.4477,1.4475,1.4491,1.4497,1.4501,1.4494,1.4493,1.4492,1.4489,1.4487,1.4505,1.4505,1.4506,1.4506,0,1.4059,1.4087,1.4097,1.4148,1.4172,1.4193,1.4238,1.4257,1.4282,1.4313,1.4342,1.4381,1.442,1.4429,1.4454,1.4463,1.4468,1.4485,1.4503,1.4486,1.4484,1.4483,1.4502,1.4503,1.4503,1.4504,0,0,1.4011,1.4087,1.409,1.4113,1.4168,1.419,1.4212,1.4251,1.4266,1.4301,1.432,1.4361,1.4378,1.4402,1.443,1.4439,1.443,1.4456,1.4458,1.4449,1.4442,1.4427,1.4426,1.4447,1.4447,1.4447,1.4438,0,1.4001,1.4045,1.4085,1.4113,1.4139,1.4181,1.42,1.4235,1.4264,1.4289,1.4321,1.4349,1.437,1.4384,1.4396,1.4429,1.4429,1.443,1.4464,1.4464,1.4451,1.4425,1.441,1.44,1.4438,1.4438,1.4438,0,1.3995,1.4029,1.4061,1.4113,1.4125,1.4142,1.418,1.4205,1.4244,1.4265,1.4291,1.4321,1.4345,1.4361,1.4395,1.4394,1.441,1.4429,1.4429,1.4433,1.4449,1.4426,1.4397,1.4395,1.4437,1.4437,1.4437,0,1.3955,1.4009,1.4035,1.4054,1.4116,1.4126,1.4152,1.4193,1.4213,1.4247,1.426,1.4295,1.4314,1.434,1.4378,1.4386,1.4407,1.4427,1.4424,1.4423,1.4425,1.4424,1.4397,1.4438,1.4438,1.4438,1.4438,0,1.3939,1.3956,1.4018,1.4034,1.4054,1.41,1.4118,1.4147,1.4183,1.4204,1.4242,1.4261,1.431,1.4335,1.4364,1.4387,1.4396,1.4412,1.4419,1.4408,1.4405,1.4418,1.4419,1.4437,1.4437,1.4437,1.4437,0,1.3897,1.394,1.3971,1.4026,1.4041,1.4053,1.41,1.4116,1.4148,1.4174,1.4183,1.4232,1.4263,1.4304,1.4347,1.4367,1.4385,1.4398,1.4372,1.4376,1.4371,1.437,1.4349,1.4348,1.439,1.439,1.4389,0,1.3883,1.3898,1.3955,1.3973,1.3998,1.4025,1.4047,1.4092,1.4112,1.4159,1.4169,1.4203,1.4232,1.4279,1.4318,1.4351,1.4364,1.4354,1.4369,1.4356,1.4362,1.436,1.4361,1.435,1.4349,1.4349,1.4348,0,1.3853,1.3874,1.3904,1.3942,1.3967,1.3998,1.4031,1.4043,1.4094,1.4115,1.4148,1.4171,1.4215,1.4248,1.4286,1.4312,1.4338,1.4344,1.4345,1.4332,1.4316,1.4323,1.436,1.4344,1.4344,1.4344,1.4345,1.4345,1.3825,1.3839,1.3882,1.3914,1.3944,1.3974,1.3992,1.4026,1.4054,1.4095,1.4119,1.415,1.419,1.4244,1.4268,1.4292,1.4303,1.4304,1.4304,1.4304,1.4299,1.4313,1.4299,1.43,1.43,1.43,1.43,0,1.3796,1.3826,1.3855,1.39,1.3925,1.395,1.3988,1.4006,1.4034,1.4069,1.4097,1.4134,1.4166,1.4207,1.4242,1.4253,1.4266,1.426,1.4259,1.4264,1.4289,1.4284,1.4249,1.4249,1.4249,1.4249,1.4249,1.4249,1.3784,1.3809,1.3835,1.3875,1.3905,1.3936,1.3955,1.3983,1.4011,1.4051,1.4078,1.4105,1.4142,1.418,1.421,1.4221,1.4232,1.4222,1.4237,1.4258,1.4263,1.4267,1.4263,1.4224,1.4224,1.4211,1.421,1.421]},{"header":{"parameterUnit":"m.s-1","parameterCategory":1,"la1":30.2991,"la2":30.254,"lo1":-89.0895,"lo2":-89.0444,"dy":0.0017,"dx":0.0017,"nx":28,"ny":28,"refTime":"2023-08-30T21:00:00:Z","depth":0,"parameterNumber":3,"parameterNumberName":"V-component_of_WINDS"},"data":[0,0,0,0,0,0,0,0,0,0,0,0,0,0,0,0,0,0,0,0,0,0,0,0,0,0,0,0,0,0,0,0,0,0,0,0,0,0,0,0,0,0,0,0,0,0,0,0,0,0,0,0,0,0,0,0,0,0,0.6747,0.6747,0,0.6716,0.6716,0.6715,0.6675,0.6674,0.6673,0.6673,0.6642,0.6642,0.6642,0,0,0,0,0,0,0,0,0,0,0,0,0,0.6772,0.6772,0.6747,0.6747,0.6746,0.6716,0.6716,0.6715,0.6675,0.6674,0.6673,0.6672,0.6642,0.6642,0.6642,0,0,0,0,0,0,0,0,0,0,0,0,0,0.6753,0.6772,0.6747,0.6723,0.672,0.6716,0.6716,0.6715,0.6675,0.6674,0.6673,0.6672,0.6642,0.6642,0.6642,0.666,0,0,0.6641,0.6641,0,0,0,0,0,0,0,0,0.6754,0.6752,0.6727,0.6724,0.6721,0.6698,0.6713,0.6697,0.6675,0.6692,0.6673,0.6672,0.6662,0.666,0.6656,0.6659,0.6658,0.6641,0.6641,0.6641,0.6641,0,0,0,0,0,0,0,0.6756,0.6754,0.6735,0.6726,0.6723,0.6713,0.6709,0.671,0.6683,0.6691,0.6688,0.6684,0.666,0.6657,0.6655,0.6657,0.6641,0.6641,0.6641,0.664,0.6672,0.6673,0,0,0,0,0,0,0.6761,0.6755,0.6736,0.6734,0.6736,0.6714,0.6709,0.6707,0.6683,0.6678,0.6685,0.6683,0.6658,0.6656,0.6654,0.6673,0.6641,0.664,0.664,0.6671,0.6672,0.6674,0,0,0,0,0,0,0.6761,0.6759,0.6737,0.6744,0.674,0.6714,0.6712,0.6707,0.6703,0.6679,0.6674,0.6687,0.6657,0.6654,0.6659,0.6672,0.664,0.664,0.667,0.6672,0.6673,0.6712,0,0,0,0,0,0,0.6762,0.676,0.6766,0.6744,0.674,0.6742,0.6712,0.6707,0.6702,0.6699,0.6679,0.6674,0.6656,0.6659,0.6658,0.6671,0.664,0.6669,0.6671,0.6672,0.671,0.6715,0.672,0,0,0,0,0,0.6763,0.6779,0.6767,0.6765,0.6747,0.6743,0.6741,0.6718,0.6704,0.671,0.6694,0.6675,0.667,0.666,0.6659,0.6671,0.6668,0.667,0.6672,0.6708,0.6714,0.6719,0,0,0,0,0,0,0.6805,0.6776,0.6762,0.6771,0.676,0.6736,0.6744,0.6726,0.6719,0.6716,0.6689,0.6685,0.6692,0.6682,0.6671,0.6687,0.6666,0.6668,0.6694,0.6699,0.6704,0.6706,0.664,0,0,0,0,0,0.6815,0.6813,0.6788,0.6799,0.6794,0.677,0.6767,0.6751,0.6738,0.6733,0.6718,0.6707,0.6703,0.6701,0.6695,0.6708,0.6703,0.6716,0.6721,0.6725,0.6727,0.6732,0.6738,0.6681,0.6681,0.6681,0,0,0.6836,0.682,0.6821,0.6807,0.6796,0.6795,0.6766,0.6767,0.6766,0.6734,0.6736,0.6725,0.671,0.6719,0.6722,0.6711,0.6742,0.6728,0.6731,0.6731,0.6735,0.6741,0.6746,0.6683,0.6682,0.6682,0,0,0.6873,0.6861,0.6868,0.6858,0.6842,0.6825,0.6827,0.6806,0.6797,0.6799,0.6775,0.6774,0.6767,0.6758,0.6752,0.6786,0.6767,0.6785,0.681,0.6816,0.682,0.6824,0.6835,0.684,0.6787,0.6787,0.6787,0,0.6901,0.6899,0.6874,0.6876,0.687,0.684,0.6847,0.6839,0.6822,0.6819,0.6807,0.6797,0.6786,0.6791,0.6799,0.6796,0.6797,0.6787,0.6821,0.6825,0.6828,0.6839,0.6843,0.6789,0.6789,0.6789,0.6789,0,0.6934,0.6932,0.694,0.6924,0.6919,0.6923,0.69,0.6898,0.6882,0.6867,0.687,0.6855,0.6846,0.6846,0.6831,0.6849,0.6842,0.6826,0.6804,0.6836,0.6845,0.6849,0.6792,0.6792,0.6791,0.679,0,0,0.6996,0.6966,0.6969,0.6961,0.6941,0.694,0.6943,0.6933,0.6932,0.6922,0.6923,0.6918,0.6903,0.6896,0.688,0.6885,0.6911,0.6868,0.6867,0.6876,0.693,0.6942,0.6947,0.6899,0.69,0.69,0.6931,0,0.7029,0.7032,0.701,0.7019,0.7017,0.6989,0.6991,0.6979,0.6965,0.6962,0.6947,0.6943,0.6924,0.6919,0.6923,0.6907,0.6922,0.6905,0.69,0.69,0.6904,0.6952,0.6965,0.6994,0.6934,0.6935,0.6935,0,0.7069,0.7059,0.7068,0.7047,0.7045,0.7048,0.7037,0.7034,0.702,0.7009,0.7002,0.6983,0.6984,0.6964,0.6965,0.6954,0.6951,0.6943,0.6944,0.6942,0.692,0.6951,0.7003,0.7007,0.6941,0.6941,0.694,0,0.7113,0.7103,0.7106,0.71,0.7076,0.7078,0.7068,0.7053,0.7048,0.7039,0.7036,0.7027,0.7023,0.7016,0.6995,0.6983,0.6999,0.6977,0.699,0.6991,0.6995,0.6995,0.7047,0.6994,0.6994,0.6994,0.6993,0,0.7152,0.7158,0.7125,0.7128,0.7134,0.7108,0.7115,0.7102,0.7089,0.7088,0.7063,0.7063,0.7035,0.7032,0.7016,0.7019,0.7017,0.7009,0.7004,0.7011,0.7012,0.7008,0.7005,0.6995,0.6994,0.6994,0.6994,0,0.7202,0.718,0.7182,0.7159,0.7153,0.7158,0.7138,0.7139,0.7124,0.7123,0.7121,0.7097,0.7092,0.707,0.7061,0.7049,0.7058,0.705,0.7063,0.706,0.7074,0.7073,0.7125,0.713,0.7075,0.7075,0.7076,0,0.7228,0.7232,0.7208,0.7206,0.7197,0.7193,0.7188,0.7163,0.7159,0.7143,0.7146,0.7139,0.7132,0.7125,0.7107,0.7099,0.7089,0.7108,0.7088,0.7094,0.7089,0.7089,0.7089,0.7113,0.7113,0.7114,0.7114,0,0.7276,0.7265,0.7259,0.7249,0.7244,0.7235,0.7224,0.7224,0.7196,0.7193,0.7187,0.7182,0.7171,0.7164,0.7153,0.7143,0.7124,0.7121,0.7123,0.713,0.7137,0.7133,0.7074,0.712,0.7119,0.7119,0.7119,0.7118,0.7315,0.7317,0.73,0.7294,0.7283,0.7274,0.7274,0.7258,0.7253,0.7242,0.7227,0.7223,0.7208,0.7191,0.7183,0.7179,0.7169,0.7173,0.7174,0.7175,0.7178,0.7138,0.7177,0.7177,0.7177,0.7177,0.7176,0,0.7361,0.7349,0.7344,0.733,0.7325,0.7307,0.7295,0.7292,0.7288,0.7276,0.7269,0.7262,0.7255,0.7236,0.7227,0.7228,0.7219,0.7227,0.7226,0.7224,0.7188,0.7186,0.7234,0.7234,0.7234,0.7234,0.7234,0.7234,0.7385,0.7387,0.7374,0.7371,0.7359,0.7354,0.7348,0.734,0.733,0.7323,0.7317,0.7304,0.7289,0.7279,0.7272,0.7266,0.7264,0.7274,0.7266,0.7232,0.7227,0.7222,0.722,0.7274,0.7274,0.7302,0.7302,0.7303]}]]